Change the Weather History Date:

Monday, July 1, 2013

  Actual Average Record
Temperature  
Mean Temperature 72 °F 77 °F  
Max Temperature 83 °F 86 °F 105 °F (1980)
Min Temperature 60 °F 67 °F 54 °F (1951)
Degree Days  
Heating Degree Days 0 0  
Month to date heating degree days 0 0  
Since 1 June heating degree days 14 8  
Since 1 July heating degree days 0 0  
Cooling Degree Days 7 12  
Month to date cooling degree days 7 12  
Year to date cooling degree days 372 373  
Since 1 June cooling degree days 271 269  
Growing Degree Days 22 (Base 50)    
Moisture  
Dew Point 51 °F    
Average Humidity 55    
Maximum Humidity 78    
Minimum Humidity 31    
Precipitation  
Precipitation 0.00 in 0.13 in 1.43 in (1993)
Month to date precipitation 0.00 0.13  
Year to date precipitation 21.83 20.65  
Sea Level Pressure  
Sea Level Pressure 30.05 in    
Wind  
Wind Speed 9 mph (NNE)    
Max Wind Speed 22 mph    
Max Gust Speed 30 mph    
Visibility 10 miles    
Events      
T = Trace of Precipitation, MM = Missing Value Source: NWS Daily Summary

Daily Weather History Graph

Daily Weather History Graph

Search for Another Location

Airport or City:

Trip Planner

Search our weather history database for the weather conditions in past years. The results will help you decide how hot, cold, wet, or windy it might be!

Date:

Astronomy

Jul. 01, 2013 Rise Set
Actual Time 5:57 AM CDT 8:48 PM CDT
Civil Twilight 5:25 AM CDT 9:19 PM CDT
Nautical Twilight 4:45 AM CDT 9:59 PM CDT
Astronomical Twilight 3:59 AM CDT 10:45 PM CDT
Moon 1:25 AM CDT (7/1) 3:06 PM CDT (7/1)
Length of Visible Light 15h 54m
Length of Day
14h 50m
Waning Crescent, 35% of the Moon is Illuminated
Jul 1
Waning Crescent
Jul 8
New
Jul 15
First Quarter
Jul 22
Full
Jul 29
Last Quarter

Hourly Weather History & Observations

Time (CDT) Temp. Dew Point Humidity Pressure Visibility Wind Dir Wind Speed Gust Speed Precip Events Conditions
12:53 AM 66.9 °F 54.0 °F 63% 30.02 in 10.0 mi North 5.8 mph - N/A   Clear
1:53 AM 66.0 °F 53.1 °F 63% 30.02 in 10.0 mi North 5.8 mph - N/A   Partly Cloudy
2:53 AM 64.9 °F 53.1 °F 65% 30.02 in 10.0 mi North 5.8 mph - N/A   Clear
3:53 AM 64.0 °F 52.0 °F 65% 30.03 in 10.0 mi North 6.9 mph - N/A   Clear
4:53 AM 63.0 °F 53.1 °F 70% 30.04 in 10.0 mi North 6.9 mph - N/A   Partly Cloudy
5:53 AM 61.0 °F 53.1 °F 75% 30.05 in 9.0 mi North 6.9 mph - N/A   Clear
6:53 AM 61.0 °F 53.1 °F 75% 30.06 in 8.0 mi North 8.1 mph - N/A   Clear
7:53 AM 64.0 °F 54.0 °F 70% 30.07 in 8.0 mi North 8.1 mph - N/A   Clear
8:53 AM 68.0 °F 54.0 °F 61% 30.09 in 8.0 mi North 8.1 mph - N/A   Clear
9:53 AM 72.0 °F 54.0 °F 53% 30.09 in 9.0 mi North 9.2 mph - N/A   Clear
10:53 AM 75.0 °F 51.1 °F 43% 30.09 in 10.0 mi NNE 11.5 mph - N/A   Clear
11:53 AM 77.0 °F 52.0 °F 42% 30.09 in 10.0 mi North 15.0 mph - N/A   Clear
12:53 PM 78.1 °F 46.0 °F 32% 30.08 in 10.0 mi NNE 18.4 mph 26.5 mph N/A   Partly Cloudy
1:53 PM 80.1 °F 48.0 °F 32% 30.07 in 10.0 mi NNE 12.7 mph - N/A   Clear
2:53 PM 82.0 °F 48.0 °F 30% 30.05 in 10.0 mi NNE 16.1 mph 23.0 mph N/A   Clear
3:53 PM 82.0 °F 48.0 °F 30% 30.06 in 10.0 mi NNE 13.8 mph - N/A   Scattered Clouds
4:53 PM 79.0 °F 48.0 °F 34% 30.04 in 10.0 mi NNE 12.7 mph - N/A   Scattered Clouds
5:53 PM 79.0 °F 48.9 °F 35% 30.04 in 10.0 mi NNE 12.7 mph 21.9 mph N/A   Partly Cloudy
6:53 PM 80.1 °F 50.0 °F 35% 30.03 in 10.0 mi NE 13.8 mph - N/A   Scattered Clouds
7:53 PM 78.1 °F 48.9 °F 36% 30.04 in 10.0 mi North 12.7 mph - N/A   Partly Cloudy
8:53 PM 73.9 °F 50.0 °F 43% 30.04 in 10.0 mi NNE 6.9 mph - N/A   Clear
9:53 PM 73.0 °F 50.0 °F 44% 30.06 in 10.0 mi North 3.5 mph - N/A   Partly Cloudy
10:53 PM 71.1 °F 51.1 °F 49% 30.06 in 10.0 mi NNE 3.5 mph - N/A   Clear
11:53 PM 69.1 °F 51.1 °F 53% 30.07 in 10.0 mi NNE 3.5 mph - N/A   Clear